Regional Weather Roundup
Issued by NWS

Home | Current Version | Previous Version | Graphics & Text | Print | Product List | Glossary On
Versions: 1 2 3 4 5 6 7 8 9 10 11 12 13 14 15 16 17 18 19 20 21 22 23 24 25 26 27 28 29 30 31 32 33 34 35 36 37 38 39 40 41 42 43 44 45 46 47 48 49 50
000
ASUS43 KMPX 210501
RWRMN
WEATHER ROUNDUP FOR MINNESOTA
NATIONAL WEATHER SERVICE TWIN CITIES/CHANHASSEN MN
1100 PM CST SAT DEC 20 2014


NOTE: "FAIR" INDICATES FEW OR NO CLOUDS BELOW 12,000 FEET WITH NO
SIGNIFICANT WEATHER AND/OR OBSTRUCTIONS TO VISIBILITY. N/A MEANS
CURRENT SKY AND/OR WEATHER CONDITIONS ARE NOT AVAILABLE.

MNZ060>063-068>070-210600-
   Twin Cities Metro

CITY           SKY/WX    TMP DP  RH WIND       PRES   REMARKS
TWIN CITIES    CLOUDY    31  26  82 SE8       30.08F WCI  23
ST PAUL        CLOUDY    31  27  85 SE9       30.10F WCI  23
CRYSTAL        CLOUDY    32  27  81 S8        30.06F WCI  25
BLAINE         CLOUDY    34  30  86 S10       30.07F WCI  26
LAKEVILLE      CLOUDY    28  27  93 SE7       30.07F WCI  21
EDEN PRAIRIE   CLOUDY    32  26  78 S9        30.06F WCI  24
SOUTH ST PAUL  CLOUDY    32  28  83 SE3       30.09F
LAKE ELMO      CLOUDY    32  30  93 S10       30.09F WCI  24
$$
MNZ001>005-007-008-013>017-022>024-027-028-210600-
   Northwest Minnesota

CITY           SKY/WX    TMP DP  RH WIND       PRES   REMARKS
BEMIDJI        CLOUDY    28  28  96 S14       29.91F FOG     WCI  17
HALLOCK        LGT SNOW  30  28  93 CALM      29.84F
ROSEAU         CLOUDY    30  27  86 S8        29.89F HAZE    WCI  23
WARROAD        CLOUDY    30  27  86 S8        29.90S FOG     WCI  23
THIEF RVR FALL CLOUDY    30  28  93 S14       29.87F WCI  20
FOSSTON        CLOUDY    28  27  93 S14       29.89S FOG     WCI  17
DETROIT LAKES  CLOUDY    30  30 100 S16G23    29.91S FOG     WCI  19
MOORHEAD       CLOUDY    32  32 100 S23       29.92R FOG     WCI  19
PARK RAPIDS    CLOUDY    29  27  92 S14       29.94F FOG     WCI  18
MAHNOMEN       CLOUDY    30  28  94 S16G22    29.89F WCI  18
$$
MNZ006-009>011-018-025>026-210600-
   North Central Minnesota

CITY           SKY/WX    TMP DP  RH WIND       PRES   REMARKS
BAUDETTE       CLOUDY    30  27  88 S12G20    29.91F WCI  20
INTL FALLS     CLOUDY    29  26  89 S7        29.95F WCI  22
WASKISH        CLOUDY    28  28 100 CALM      29.93S
BIG FORK       MIX PCPN  28  27  93 S9        29.97S WCI  20
LONGVILLE      CLOUDY    27  27 100 S13       29.98S FOG     WCI  16
GRAND RAPIDS   CLOUDY    27  25  93 S17G23    29.98F WCI  14
CRANE LAKE     CLOUDY    28  27  93 S9        30.01S FOG     WCI  20
ORR            CLOUDY    27  25  93 S9        29.96S WCI  17
COOK           CLOUDY    28  27  93 S8G16     29.99F FOG     WCI  20
WALKER         CLOUDY    28  26  95 S15       29.95S WCI  16
$$
MNZ012-019>021-037-210600-
   Northeast Minnesota

CITY           SKY/WX    TMP DP  RH WIND       PRES   REMARKS
DULUTH         CLOUDY    30  25  81 S13       30.03F WCI  20
ELY            CLOUDY    28  27  93 S8        30.01S WCI  20
HIBBING        CLOUDY    29  25  85 S6        30.00F WCI  23
EVELETH        CLOUDY    30  28  93 S12       30.02F FOG     WCI  21
DULUTH HARBOR  CLOUDY    34  28  80 S9        30.09S WCI  26
SILVER BAY     CLOUDY    32  27  80 S9        30.05S WCI  24
GRAND MARAIS     N/A     34  28  79 SW18      30.10S WCI  23
G MARAIS ARPRT CLOUDY    27  23  86 S9        30.04S WCI  17
$$
MNZ029>031-032-039>041-046>048-054>057-064-210600-
   West Central Minnesota

CITY           SKY/WX    TMP DP  RH WIND       PRES   REMARKS
FERGUS FALLS   CLOUDY    30  28  93 S21       29.95F FOG     WCI  17
WHEATON        CLOUDY    28  27  93 SE15      29.95F FOG     WCI  17
MORRIS         CLOUDY    30  28  93 S17       29.95S FOG     WCI  18
ALEXANDRIA     CLOUDY    29  27  92 S17       29.97F FOG     WCI  17
ELBOW LAKE     CLOUDY    29  28  97 S16       29.95F FOG     WCI  17
WADENA         CLOUDY    27  27 100 S13G20    29.95F FOG     WCI  16
GLENWOOD       CLOUDY    28  28 100 S15       29.98F FOG     WCI  17
APPLETON       CLOUDY    32  30  93 S9        29.97S FOG     WCI  24
BENSON         CLOUDY    30  28  93 S12       29.98F WCI  21
ORTONVILLE     CLOUDY    30  27  86 S8        29.95S FOG     WCI  23
MADISON        CLOUDY    34  32  93 S13       29.96S FOG     WCI  25
WILLMAR        CLOUDY    32  28  86 S12       30.01F WCI  23
$$
MNZ033>034-036-042>043-049>051-058-059-210600-
   Central Minnesota

CITY           SKY/WX    TMP DP  RH WIND       PRES   REMARKS
ST CLOUD       CLOUDY    31  26  82 S10       30.03F WCI  22
SAUK CENTRE    CLOUDY    29  28  96 S15       30.00S FOG     WCI  18
PAYNESVILLE    CLOUDY    28  28  99 SE8G21    30.01S FOG     WCI  20
AITKIN         CLOUDY    30  25  80 S10G17    30.00F WCI  21
PINE RIVER     CLOUDY    27  27 100 S13G18    30.01F WCI  16
BRAINERD       CLOUDY    27  25  92 S17       30.01S WCI  14
STAPLES        CLOUDY    27  27 100 S10G16    29.98S WCI  17
LONG PRAIRIE   CLOUDY    28  28 100 SE14      30.00S FOG     WCI  17
LITTLE FALLS   CLOUDY    30  27  86 SE9       30.02F WCI  22
LITCHFIELD     CLOUDY    32  30  93 S6        30.02F WCI  26
BUFFALO        CLOUDY    31  27  86 S3        30.06S
MAPLE LAKE     CLOUDY    31  29  92 SE7       30.05S WCI  25
$$
MNZ037-044-045-052-053-210600-
   East Central Minnesota

CITY           SKY/WX    TMP DP  RH WIND       PRES   REMARKS
PRINCETON      CLOUDY    30  27  86 S10       30.06S WCI  21
MORA           CLOUDY    32  27  80 S12       30.07F WCI  23
CAMBRIDGE      CLOUDY    32  25  74 S13       30.05F WCI  22
RUSH CITY      CLOUDY    31  27  86 S10       30.08S WCI  22
MOOSE LAKE     CLOUDY    32  28  86 S10       30.03S WCI  24
HINCKLEY       CLOUDY    32  30  93 S10       30.06F WCI  24
CLOQUET        CLOUDY    30  27  86 S12G17    30.03S WCI  21
MCGREGOR       CLOUDY    30  28  93 S10       30.02S WCI  21
$$
MNZ071>073-080-081-089-090-097-098-210600-
   Southwest Minnesota

CITY           SKY/WX    TMP DP  RH WIND       PRES   REMARKS
MONTEVIDEO     CLOUDY    30  30 100 S10G17    29.99S WCI  21
GRANITE FALLS  CLOUDY    31  29  92 S12       30.00F WCI  22
CANBY          CLOUDY    32  30  94 S9        29.97S FOG     WCI  24
MARSHALL       CLOUDY    30  27  86 S13       29.97F WCI  20
REDWOOD FALLS  CLOUDY    32  29  88 S14       30.00F WCI  22
OLIVIA         CLOUDY    32  30  93 S10       30.00F WCI  24
PIPESTONE      FOG       30  28  93 S6        29.95S VSB 1/4 WCI  24
WINDOM         CLOUDY    30  30 100 S12       30.00S FOG     WCI  21
WORTHINGTON    CLOUDY    30  30 100 S15G21    29.99S WCI  19
JACKSON        CLOUDY    32  30  93 S12       30.00F WCI  23
TRACY          CLOUDY    32  30  94 S10G17    29.97F FOG     WCI  23
SLAYTON        CLOUDY    30  30 100 S8        29.97F FOG     WCI  22
$$
MNZ065>067-074>077-082>085-091>093-210600-
   South Central Minnesota

CITY           SKY/WX    TMP DP  RH WIND       PRES   REMARKS
MANKATO        CLOUDY    30  27  86 S9        30.05F WCI  22
NEW ULM        CLOUDY    32  30  93 S13       30.03S WCI  22
ST JAMES       CLOUDY    34  30  86 S12       30.04S WCI  25
FAIRMONT       CLOUDY    32  28  86 S13       30.02F WCI  22
GLENCOE        CLOUDY    32  31  95 SE7       30.04S WCI  26
FARIBAULT      CLOUDY    30  28  93 SE8       30.07F WCI  23
OWATONNA       CLOUDY    30  28  93 SE8       30.07F WCI  23
WASECA         CLOUDY    32  30  93 SE9       30.07F WCI  24
ALBERT LEA     FOG       30  30 100 S10       30.06F VSB 1/4 WCI  21
$$
MNZ078>079-086>088-094>096-210600-
   Southeast Minnesota

CITY           SKY/WX    TMP DP  RH WIND       PRES   REMARKS
ROCHESTER      CLOUDY    30  28  92 S8        30.09F FOG     WCI  22
RED WING       CLOUDY    34  27  75 SE5       30.10F WCI  30
STANTON        CLOUDY    32  28  83 SE7       30.07F WCI  26
DODGE CENTER   CLOUDY    30  30 100 S10       30.07F FOG     WCI  21
WINONA         CLOUDY    34  32  93 SE3       30.15F FOG
AUSTIN         CLOUDY    30  30 100 S7        30.07F FOG     WCI  23
PRESTON        CLOUDY    29  28  96 S9        30.10F FOG     WCI  21
$$
ABBREVIATIONS USED IN REMARKS
   TC - TEMPERATURES IN CELSIUS
  WCI - WIND CHILL INDEX
   HX - HEAT INDEX
  VSB - VISIBILITY
$$


USA.gov is the U.S. government's official web portal to all federal, state and local government web resources and services.